Theta_e
329 330 331 330 331 330 330 328 327 327 324 322 322 322 319 315 314 313 313 312 312 312 311 310 309 307 305 303 303 303 303 302 302 302 301 298 297 296 296 295 294 293 293
326 329 328 327 329 330 327 329 328 326 323 322 322 319 314 313 312 312 310 310 310 310 309 308 306 304 302 300 301 301 302 302 301 301 299 295 297 296 295 294 294 293 293
325 328 327 326 326 326 327 328 328 326 323 322 320 315 313 313 311 310 310 310 309 309 306 303 301 299 298 297 297 298 302 301 299 299 299 294 294 293 295 293 293 293 293
323 327 326 325 324 325 326 327 329 326 324 322 318 315 313 311 310 310 309 308 305 303 301 299 298 297 296 296 298 299 300 301 299 297 297 297 295 291 291 293 292 292 292
320 324 326 325 325 325 326 327 328 326 324 322 319 315 313 312 311 310 307 303 301 299 298 298 297 296 296 298 301 301 300 300 299 297 297 296 295 293 290 289 291 291 291
320 319 325 325 325 325 327 327 327 325 324 323 320 316 315 312 311 309 305 300 299 298 297 297 296 296 298 299 300 299 297 296 296 296 296 295 294 292 291 288 289 289 290
321 319 323 324 325 326 327 327 327 325 324 324 322 318 315 313 311 308 301 298 298 297 297 296 295 295 296 299 299 298 297 296 296 296 296 295 295 293 292 290 289 288 289
320 321 324 325 324 325 326 327 327 325 326 325 323 319 315 313 310 305 300 299 298 297 296 296 295 295 298 299 298 298 298 296 296 296 295 295 295 293 292 290 289 287 287
321 323 324 325 325 326 326 327 326 323 325 320 319 319 314 312 308 303 299 298 297 296 296 295 294 295 295 295 295 297 298 297 297 297 295 294 294 293 291 291 290 288 285
323 324 325 326 326 326 324 323 323 323 324 318 315 312 310 308 305 301 299 298 297 296 296 295 295 295 295 295 295 295 294 294 294 293 294 294 293 293 292 291 289 289 287
324 324 325 325 325 324 322 321 319 318 315 313 313 312 309 304 302 300 299 297 296 296 295 295 294 294 294 294 295 295 294 293 293 293 293 293 292 292 291 290 288 287 285
322 324 324 321 318 317 317 317 315 314 313 311 310 309 305 302 301 300 298 297 297 297 296 295 295 294 294 294 295 295 294 293 293 292 292 291 291 291 290 288 287 285 284
321 321 319 318 317 316 314 314 313 310 308 307 305 304 302 301 300 300 299 298 298 297 296 296 296 295 293 294 295 294 294 293 293 292 291 291 290 289 288 287 285 284 283
320 317 317 317 318 317 313 312 311 309 308 306 306 305 302 301 301 300 299 298 298 297 296 296 296 295 294 294 294 294 294 293 293 291 291 290 289 288 286 286 285 283 282
317 315 315 313 316 316 316 313 311 310 308 307 307 303 301 301 300 299 299 298 297 296 296 295 296 295 295 294 294 294 294 293 292 290 289 288 287 286 286 285 284 283 282
312 314 314 313 313 314 315 315 312 309 307 307 304 302 302 301 300 299 297 296 296 295 295 299 296 295 295 295 295 294 294 293 291 289 288 289 287 286 286 284 283 282 281
309 309 309 313 313 313 313 314 312 310 309 305 303 302 302 301 299 297 295 295 296 298 299 296 295 294 293 293 294 294 294 293 291 289 291 287 286 286 285 284 282 281 280
307 304 303 305 310 313 312 311 309 306 304 302 301 300 299 297 296 296 297 298 298 298 295 294 293 293 293 293 294 294 293 292 290 291 290 287 286 285 284 283 282 281 281
300 299 299 301 305 309 310 309 304 302 300 298 297 296 296 297 297 297 298 298 298 296 294 293 292 292 292 292 292 293 293 291 290 289 289 286 285 285 284 283 282 281 281
297 297 297 298 299 299 301 300 297 296 295 295 295 296 297 297 297 297 298 297 295 294 293 292 292 291 291 292 292 292 291 290 290 288 287 286 285 284 283 282 281 281 281
297 297 297 296 296 297 298 296 295 295 296 296 297 297 297 298 298 298 296 294 293 292 292 292 290 291 291 292 292 291 291 290 289 287 287 286 285 283 282 281 281 281 280
296 296 295 295 295 296 296 295 296 296 297 298 299 298 298 298 296 295 294 293 292 292 291 291 290 290 290 292 291 290 290 290 288 287 287 286 285 283 282 282 281 281 281
295 295 295 295 296 296 296 295 296 297 297 298 298 297 296 295 293 293 292 292 292 290 290 290 291 291 290 290 291 290 289 288 287 287 287 286 285 283 282 282 282 281 281
294 295 295 294 294 295 295 294 294 293 293 292 292 291 291 291 290 290 290 291 291 290 290 290 290 290 291 290 290 290 289 289 288 288 286 286 285 284 283 282 282 282 281
294 295 294 293 293 293 292 292 292 292 292 291 291 291 291 291 291 290 290 290 290 290 291 290 290 290 290 291 290 289 289 289 289 289 288 285 284 283 282 282 282 282 281
294 293 293 292 291 291 291 291 291 291 291 291 291 290 290 290 290 290 290 291 291 291 291 290 290 291 291 291 290 290 290 289 289 286 284 283 283 282 282 282 282 283 282
Wind_Speed
23 27 27 28 30 31 29 26 28 30 31 29 26 22 22 21 20 20 18 17 16 14 10 7 6 2 2 4 4 3 5 5 4 3 2 3 6 6 6 6 6 7 9
13 22 25 27 33 37 35 31 34 33 31 30 25 22 24 23 22 20 19 17 15 13 8 6 2 1 3 4 4 5 4 3 2 2 1 2 3 2 5 4 4 3 6
17 17 24 28 30 33 38 38 39 36 32 29 26 24 24 22 22 22 21 17 13 10 7 4 1 2 6 7 7 5 2 2 2 1 1 1 3 3 4 3 2 3 10
13 13 21 26 31 36 40 44 42 39 35 31 29 31 34 27 26 25 19 16 11 8 5 2 2 4 7 8 7 5 2 1 3 3 2 1 1 3 3 5 4 3 7
14 17 24 30 30 32 34 39 39 40 37 33 32 35 32 29 26 23 20 16 12 8 4 1 3 5 5 4 3 3 4 3 1 1 2 4 5 7 5 3 4 7 8
12 13 23 24 25 30 33 36 37 40 38 35 35 37 35 33 28 26 23 18 14 9 6 3 4 6 5 3 2 2 2 1 1 1 2 5 6 6 6 3 8 7 7
13 11 15 22 25 31 36 38 38 37 41 37 38 38 38 35 33 31 25 20 16 12 8 4 3 4 4 4 5 2 2 2 1 3 4 7 8 9 8 8 5 6 6
13 15 19 26 27 30 33 33 36 35 39 39 40 38 37 35 35 29 23 19 15 10 7 5 6 4 5 5 8 7 4 5 5 7 8 9 11 10 7 5 5 3 4
11 15 18 27 28 28 35 40 39 36 35 35 35 35 35 35 33 27 21 18 14 13 12 4 3 6 5 5 5 7 7 7 8 9 12 12 9 9 8 8 7 4 2
7 9 14 23 28 31 34 40 42 43 43 38 35 31 32 34 31 27 24 22 21 17 9 10 7 5 6 5 4 6 6 6 9 12 12 10 10 11 13 10 9 12 10
9 11 15 23 27 29 35 39 40 38 38 37 37 37 36 34 29 27 25 24 18 12 11 9 5 5 7 5 6 6 5 8 8 9 10 11 11 10 11 12 10 10 9
10 12 15 20 25 29 33 38 38 40 41 40 39 38 35 33 31 29 26 23 17 14 11 8 5 3 6 7 8 10 10 10 10 11 12 10 10 12 13 13 12 11 11
6 3 6 12 19 24 27 30 33 33 32 37 36 34 35 36 34 30 27 22 19 15 12 8 5 3 8 11 11 14 15 14 13 15 15 14 13 14 13 12 13 13 11
6 5 4 6 15 19 18 20 24 27 29 30 34 36 39 38 35 30 29 25 21 17 11 8 5 10 11 12 14 17 20 18 16 17 17 15 15 14 12 13 14 13 12
6 6 5 5 10 13 15 22 27 29 32 35 35 39 39 35 32 30 27 25 19 14 9 6 8 17 15 18 20 21 23 21 17 16 13 12 14 13 13 13 13 11 11
6 3 5 7 13 18 23 23 27 30 29 33 36 35 34 30 29 27 22 15 11 6 3 8 15 19 22 25 24 25 25 24 18 17 13 15 16 13 14 13 12 10 11
8 9 8 8 9 15 21 28 31 31 35 37 31 27 28 25 23 21 19 15 9 2 13 13 18 19 21 20 20 22 24 24 21 16 13 16 15 14 14 13 13 12 11
7 6 8 10 8 7 10 14 16 21 19 15 17 18 20 25 25 22 15 9 4 11 12 16 19 17 17 17 17 19 22 23 19 18 15 16 15 15 15 15 15 14 13
7 10 13 14 15 10 1 8 11 15 18 20 23 26 31 27 18 10 7 9 13 12 13 16 17 19 20 19 18 18 21 22 21 17 16 16 16 15 15 16 16 15 15
13 14 15 17 20 16 14 20 22 24 24 26 27 28 21 13 9 4 11 11 11 13 14 18 21 23 23 17 17 17 21 22 20 20 18 17 17 15 15 17 15 16 15
15 16 20 21 19 17 21 25 25 24 26 28 22 14 9 6 8 12 10 9 13 15 18 21 19 17 17 18 18 20 23 24 24 22 21 20 18 16 16 16 16 16 13
14 17 20 22 19 18 25 25 25 21 18 13 10 7 7 9 8 6 9 14 15 19 21 20 20 15 19 18 18 21 23 24 24 25 24 21 19 18 17 17 16 15 13
15 18 21 24 22 20 23 21 13 9 7 5 4 2 3 5 8 12 16 17 18 19 21 22 24 24 18 16 19 22 24 25 26 28 26 23 21 20 18 18 17 16 16
16 19 22 21 19 18 18 15 11 9 9 8 7 8 9 10 12 13 15 17 20 22 24 24 26 27 25 20 18 22 28 28 30 30 31 28 24 22 22 20 21 19 17
17 19 19 18 16 14 14 12 11 10 10 10 11 12 13 14 17 18 19 21 23 24 27 29 30 29 30 30 23 22 24 26 31 34 34 32 28 27 27 27 26 22 19
17 17 15 15 14 15 16 15 14 12 12 13 15 16 17 18 20 23 27 25 27 28 28 29 30 34 33 32 31 31 30 28 27 26 25 26 30 31 31 31 29 26 22
Wind_Direction
198 197 200 202 200 197 193 193 192 181 175 173 172 173 171 165 162 166 167 168 169 170 175 181 176 176 314 9 3 9 4 12 28 102 92 137 121 84 59 67 70 62 45
187 192 192 190 195 195 193 190 187 184 185 183 182 183 178 173 171 170 172 171 174 177 184 188 183 331 341 344 337 336 356 37 29 98 80 355 247 213 63 93 1 9 359
186 187 189 189 193 195 194 194 192 192 193 191 188 182 175 173 174 175 175 174 184 185 188 173 120 349 351 348 344 340 36 322 42 187 202 69 245 329 253 182 183 308 316
195 195 194 192 192 197 200 197 197 198 196 193 192 186 183 176 188 180 175 173 174 173 168 140 51 10 1 347 339 341 335 226 177 102 82 312 276 195 311 239 244 297 314
189 189 201 204 195 195 200 199 201 200 198 198 199 196 190 194 190 180 173 172 172 173 152 93 9 8 16 26 45 81 86 86 123 241 270 265 254 248 223 259 261 286 281
201 189 197 197 202 197 201 203 202 204 202 203 208 204 201 198 182 178 180 178 171 160 142 104 52 46 34 3 178 172 337 1 154 164 243 243 246 244 233 230 258 254 280
196 170 180 188 195 197 202 204 206 204 207 211 212 211 209 204 193 182 181 173 165 158 142 121 83 349 291 222 231 259 211 221 248 251 267 265 267 254 257 263 259 244 260
187 183 185 190 194 199 204 202 208 209 208 215 215 213 214 204 194 185 185 180 170 156 147 140 332 352 217 222 240 242 257 251 250 243 256 273 256 243 251 241 257 281 260
180 185 177 188 192 197 205 205 210 212 214 215 214 212 210 199 187 186 182 176 175 174 169 233 157 209 229 237 244 262 269 276 281 262 274 262 242 244 247 269 261 239 269
163 175 184 189 195 203 203 203 209 210 208 206 201 195 188 188 190 187 182 187 180 180 196 182 175 213 242 253 254 256 252 271 287 277 266 234 245 263 267 265 260 274 262
185 184 188 196 193 196 200 204 207 205 202 196 192 189 189 190 190 188 188 182 181 186 178 181 180 225 240 260 260 242 258 295 281 257 235 241 259 260 256 260 256 259 259
201 194 190 178 183 192 196 200 200 203 204 194 189 188 189 189 189 189 190 189 186 186 187 189 191 265 263 262 263 246 261 276 275 243 237 241 241 247 259 259 258 264 270
203 177 155 185 194 198 198 197 199 201 193 193 191 190 193 193 193 197 195 194 190 194 192 198 226 291 263 250 260 258 259 261 267 244 237 239 239 249 255 256 265 271 271
182 178 184 201 211 213 210 200 199 200 197 196 196 199 201 197 201 199 197 199 196 195 198 212 243 282 266 253 256 265 261 257 251 241 237 243 250 257 258 267 272 269 274
160 177 195 215 235 227 213 209 205 202 204 204 206 205 202 202 204 202 200 197 196 194 201 224 289 267 269 268 263 262 257 250 241 230 235 259 258 265 273 274 269 264 267
83 126 218 233 239 229 215 206 207 207 207 212 206 202 203 202 204 199 194 179 181 180 151 303 275 292 290 285 274 267 255 241 231 229 238 261 252 264 278 277 269 264 271
41 31 9 343 301 254 232 215 212 208 209 209 202 196 193 192 187 158 138 128 128 9 313 282 287 286 290 286 283 267 253 235 231 226 263 255 255 266 271 262 258 263 280
62 38 16 10 353 295 244 231 213 203 192 173 166 163 159 145 137 135 134 121 10 291 262 284 293 289 294 298 289 271 248 231 227 239 264 249 253 263 263 253 254 268 283
41 37 35 32 34 36 184 171 138 139 134 127 128 131 132 123 116 100 70 357 298 273 284 291 293 293 296 299 291 269 233 228 231 237 256 244 254 269 263 251 255 271 289
43 41 48 54 59 65 102 107 97 103 101 110 113 119 113 99 90 1 326 296 276 281 281 289 293 292 293 289 280 261 236 232 236 244 241 244 255 263 256 245 253 269 293
57 64 65 62 69 85 100 85 88 88 103 109 108 98 77 23 333 306 272 272 274 271 282 296 296 303 293 284 271 258 238 239 240 243 244 247 251 256 254 245 250 268 289
69 73 72 66 72 87 101 94 96 108 107 99 83 42 327 283 260 262 270 270 275 283 288 290 291 304 307 289 267 256 248 244 247 247 250 252 250 252 251 242 250 268 272
80 85 83 79 80 89 97 93 93 94 86 70 43 347 303 282 273 280 283 283 285 283 280 284 287 290 302 303 278 258 252 252 254 256 256 254 250 250 249 247 249 262 264
93 98 93 87 84 81 80 79 71 57 47 32 4 340 322 315 308 299 291 286 284 287 287 287 290 292 282 283 292 274 260 255 255 260 259 254 248 249 252 251 248 258 262
104 100 97 92 83 75 64 50 39 28 20 6 352 342 334 326 323 318 310 300 294 288 286 286 287 286 283 281 284 281 275 273 266 260 257 250 242 242 245 250 253 253 259
111 99 92 87 79 75 60 49 41 32 21 14 7 360 351 343 337 329 320 312 310 309 303 294 282 282 280 283 280 281 275 273 273 253 240 239 236 238 243 249 256 253 255